Location: Poughquag
(41.6090°N, 73.6820°W)
Time: 09:22:06
(UTC-05:00)

DIWATA 2B (PO-101) - Pass Details

Date: 16 November 2025
Orbit: 563 x 574 km, 98.1° (Epoch: 07 December)

Event Time Altitude Azimuth Distance (km) Brightness Sun altitude
Exits shadow 16:56:18 - 37° (NE) 2,596 ? -4.8°
Reaches altitude 10° 16:58:57 10° 61° (ENE) 1,862 ? -5.2°
Maximum altitude 17:00:59 14° 92° (E) 1,639 ? -5.6°
Drops below altitude 10° 17:03:01 10° 122° (ESE) 1,854 ? -5.9°
Sets 17:06:08 0° 150° (SSE) 2,745 ? -6.5°
